Year,Month,Day,Hour,Minute,Value (Times are PST for windspeed in km/hr)
2017,06,10,00,00,6.10
2017,06,10,00,01,8.10
2017,06,10,00,02,5.90
2017,06,10,00,03,6.10
2017,06,10,00,04,5.80
2017,06,10,00,05,5.30
2017,06,10,00,06,4.40
2017,06,10,00,07,3.40
2017,06,10,00,08,5.10
2017,06,10,00,09,6.40
2017,06,10,00,10,6.00
2017,06,10,00,11,5.30
2017,06,10,00,12,4.50
2017,06,10,00,13,7.00
2017,06,10,00,14,6.60
2017,06,10,00,15,8.30
2017,06,10,00,16,9.80
2017,06,10,00,17,8.00
2017,06,10,00,18,12.10
2017,06,10,00,19,9.70
2017,06,10,00,20,10.00
2017,06,10,00,21,13.90
2017,06,10,00,22,13.00
2017,06,10,00,23,12.00
2017,06,10,00,24,18.40
2017,06,10,00,25,16.50
2017,06,10,00,26,14.90
2017,06,10,00,27,16.50
2017,06,10,00,28,21.10
2017,06,10,00,29,21.80
2017,06,10,00,30,13.10
2017,06,10,00,31,12.30
2017,06,10,00,32,13.80
2017,06,10,00,33,15.90
2017,06,10,00,34,16.20
2017,06,10,00,35,12.50
2017,06,10,00,36,8.80
2017,06,10,00,37,10.50
2017,06,10,00,38,11.20
2017,06,10,00,39,10.90
2017,06,10,00,40,14.70
2017,06,10,00,41,10.00
2017,06,10,00,42,8.70
2017,06,10,00,43,13.70
2017,06,10,00,44,11.30
2017,06,10,00,45,8.00
2017,06,10,00,46,8.10
2017,06,10,00,47,8.40
2017,06,10,00,48,11.40
2017,06,10,00,49,7.40
2017,06,10,00,50,5.70
2017,06,10,00,51,6.10
2017,06,10,00,52,5.20
2017,06,10,00,53,6.40
2017,06,10,00,54,7.10
2017,06,10,00,55,9.10
2017,06,10,00,56,14.50
2017,06,10,00,57,10.50
2017,06,10,00,58,7.30
2017,06,10,00,59,9.50
2017,06,10,01,00,7.20
2017,06,10,01,01,5.80
2017,06,10,01,02,4.50
2017,06,10,01,03,4.40
2017,06,10,01,04,2.50
2017,06,10,01,05,2.70
2017,06,10,01,06,3.80
2017,06,10,01,07,7.50
2017,06,10,01,08,4.80
2017,06,10,01,09,6.20
2017,06,10,01,10,5.00
2017,06,10,01,11,4.80
2017,06,10,01,12,5.50
2017,06,10,01,13,5.70
2017,06,10,01,14,8.60
2017,06,10,01,15,7.90
2017,06,10,01,16,10.50
2017,06,10,01,17,12.10
2017,06,10,01,18,8.30
2017,06,10,01,19,6.90
2017,06,10,01,20,8.80
2017,06,10,01,21,10.90
2017,06,10,01,22,10.80
2017,06,10,01,23,6.60
2017,06,10,01,24,6.50
2017,06,10,01,25,8.20
2017,06,10,01,26,6.60
2017,06,10,01,27,8.10
2017,06,10,01,28,8.00
2017,06,10,01,29,7.00
2017,06,10,01,30,6.60
2017,06,10,01,31,8.40
2017,06,10,01,32,8.90
2017,06,10,01,33,8.40
2017,06,10,01,34,7.20
2017,06,10,01,35,8.60
2017,06,10,01,36,7.60
2017,06,10,01,37,8.30
2017,06,10,01,38,11.40
2017,06,10,01,39,12.40
2017,06,10,01,40,10.80
2017,06,10,01,41,9.90
2017,06,10,01,42,11.30
2017,06,10,01,43,13.40
2017,06,10,01,44,9.10
2017,06,10,01,45,9.90
2017,06,10,01,46,9.70
2017,06,10,01,47,12.00
2017,06,10,01,48,10.00
2017,06,10,01,49,8.60
2017,06,10,01,50,9.80
2017,06,10,01,51,11.00
2017,06,10,01,52,10.20
2017,06,10,01,53,8.80
2017,06,10,01,54,10.50
2017,06,10,01,55,9.90
2017,06,10,01,56,9.50
2017,06,10,01,57,12.80
2017,06,10,01,58,10.40
2017,06,10,01,59,10.50
2017,06,10,02,00,9.70
2017,06,10,02,01,9.90
2017,06,10,02,02,11.70
2017,06,10,02,03,12.70
2017,06,10,02,04,13.70
2017,06,10,02,05,13.60
2017,06,10,02,06,10.90
2017,06,10,02,07,10.10
2017,06,10,02,08,9.20
2017,06,10,02,09,9.00
2017,06,10,02,10,9.90
2017,06,10,02,11,7.40
2017,06,10,02,12,7.70
2017,06,10,02,13,7.50
2017,06,10,02,14,5.20
2017,06,10,02,15,7.00
2017,06,10,02,16,5.30
2017,06,10,02,17,8.90
2017,06,10,02,18,8.40
2017,06,10,02,19,7.50
2017,06,10,02,20,5.70
2017,06,10,02,21,6.70
2017,06,10,02,22,7.20
2017,06,10,02,23,7.80
2017,06,10,02,24,7.50
2017,06,10,02,25,8.30
2017,06,10,02,26,7.80
2017,06,10,02,27,7.50
2017,06,10,02,28,8.80
2017,06,10,02,29,7.80
2017,06,10,02,30,9.20
2017,06,10,02,31,8.30
2017,06,10,02,32,6.90
2017,06,10,02,33,7.60
2017,06,10,02,34,6.20
2017,06,10,02,35,6.60
2017,06,10,02,36,6.00
2017,06,10,02,37,6.90
2017,06,10,02,38,5.30
2017,06,10,02,39,5.50
2017,06,10,02,40,6.00
2017,06,10,02,41,5.30
2017,06,10,02,42,5.30
2017,06,10,02,43,3.40
2017,06,10,02,44,1.90
2017,06,10,02,45,3.40
2017,06,10,02,46,4.00
2017,06,10,02,47,3.50
2017,06,10,02,48,4.80
2017,06,10,02,49,5.50
2017,06,10,02,50,4.80
2017,06,10,02,51,5.90
2017,06,10,02,52,6.70
2017,06,10,02,53,5.70
2017,06,10,02,54,5.00
2017,06,10,02,55,6.40
2017,06,10,02,56,3.70
2017,06,10,02,57,5.00
2017,06,10,02,58,4.00
2017,06,10,02,59,3.40
2017,06,10,03,00,2.70
2017,06,10,03,01,4.00
2017,06,10,03,02,4.30
2017,06,10,03,03,3.50
2017,06,10,03,04,4.10
2017,06,10,03,05,3.40
2017,06,10,03,06,4.00
2017,06,10,03,07,4.20
2017,06,10,03,08,3.90
2017,06,10,03,09,2.50
2017,06,10,03,10,3.50
2017,06,10,03,11,2.10
2017,06,10,03,12,1.70
2017,06,10,03,13,2.80
2017,06,10,03,14,2.90
2017,06,10,03,15,2.40
2017,06,10,03,16,2.30
2017,06,10,03,17,2.00
2017,06,10,03,18,5.10
2017,06,10,03,19,2.60
2017,06,10,03,20,2.80
2017,06,10,03,21,2.80
2017,06,10,03,22,3.90
2017,06,10,03,23,1.70
2017,06,10,03,24,2.00
2017,06,10,03,25,1.90
2017,06,10,03,26,0.60
2017,06,10,03,27,2.00
2017,06,10,03,28,2.40
2017,06,10,03,29,2.10
2017,06,10,03,30,1.70
2017,06,10,03,31,1.50
2017,06,10,03,32,2.60
2017,06,10,03,33,2.80
2017,06,10,03,34,1.90
2017,06,10,03,35,2.80
2017,06,10,03,36,3.60
2017,06,10,03,37,2.10
2017,06,10,03,38,1.80
2017,06,10,03,39,1.40
2017,06,10,03,40,1.50
2017,06,10,03,41,0.70
2017,06,10,03,42,0.00
2017,06,10,03,43,0.00
2017,06,10,03,44,0.00
2017,06,10,03,45,0.40
2017,06,10,03,46,1.00
2017,06,10,03,47,0.00
2017,06,10,03,48,0.70
2017,06,10,03,49,2.20
2017,06,10,03,50,1.10
2017,06,10,03,51,0.40
2017,06,10,03,52,1.70
2017,06,10,03,53,0.70
2017,06,10,03,54,1.40
2017,06,10,03,55,1.20
2017,06,10,03,56,1.00
2017,06,10,03,57,1.50
2017,06,10,03,58,1.60
2017,06,10,03,59,1.30
2017,06,10,04,00,0.70
2017,06,10,04,01,1.20
2017,06,10,04,02,1.00
2017,06,10,04,03,1.20
2017,06,10,04,04,0.40
2017,06,10,04,05,0.30
2017,06,10,04,06,0.60
2017,06,10,04,07,0.50
2017,06,10,04,08,1.10
2017,06,10,04,09,0.00
2017,06,10,04,10,0.00
2017,06,10,04,11,0.00
2017,06,10,04,12,0.00
2017,06,10,04,13,0.00
2017,06,10,04,14,0.00
2017,06,10,04,15,0.00
2017,06,10,04,16,0.30
2017,06,10,04,17,0.00
2017,06,10,04,18,1.10
2017,06,10,04,19,1.30
2017,06,10,04,20,1.80
2017,06,10,04,21,1.80
2017,06,10,04,22,1.50
2017,06,10,04,23,2.40
2017,06,10,04,24,2.00
2017,06,10,04,25,2.20
2017,06,10,04,26,2.50
2017,06,10,04,27,3.20
2017,06,10,04,28,3.30
2017,06,10,04,29,3.60
2017,06,10,04,30,3.00
2017,06,10,04,31,2.80
2017,06,10,04,32,2.70
2017,06,10,04,33,3.30
2017,06,10,04,34,3.90
2017,06,10,04,35,4.80
2017,06,10,04,36,5.20
2017,06,10,04,37,5.00
2017,06,10,04,38,4.80
2017,06,10,04,39,3.70
2017,06,10,04,40,3.20
2017,06,10,04,41,2.20
2017,06,10,04,42,1.30
2017,06,10,04,43,1.00
2017,06,10,04,44,0.00
2017,06,10,04,45,0.00
2017,06,10,04,46,0.00
2017,06,10,04,47,0.00
2017,06,10,04,48,0.00
2017,06,10,04,49,0.00
2017,06,10,04,50,0.00
2017,06,10,04,51,1.10
2017,06,10,04,52,3.00
2017,06,10,04,53,3.80
2017,06,10,04,54,4.10
2017,06,10,04,55,4.60
2017,06,10,04,56,3.60
2017,06,10,04,57,3.10
2017,06,10,04,58,3.40
2017,06,10,04,59,3.10
2017,06,10,05,00,3.30
2017,06,10,05,01,2.80
2017,06,10,05,02,2.60
2017,06,10,05,03,2.20
2017,06,10,05,04,1.70
2017,06,10,05,05,1.60
2017,06,10,05,06,2.10
2017,06,10,05,07,2.10
2017,06,10,05,08,1.10
2017,06,10,05,09,1.70
2017,06,10,05,10,1.10
2017,06,10,05,11,0.00
2017,06,10,05,12,0.40
2017,06,10,05,13,2.50
2017,06,10,05,14,3.30
2017,06,10,05,15,3.90
2017,06,10,05,16,5.20
2017,06,10,05,17,5.60
2017,06,10,05,18,4.50
2017,06,10,05,19,5.40
2017,06,10,05,20,4.40
2017,06,10,05,21,4.00
2017,06,10,05,22,3.40
2017,06,10,05,23,3.10
2017,06,10,05,24,3.10
2017,06,10,05,25,1.20
2017,06,10,05,26,0.10
2017,06,10,05,27,0.20
2017,06,10,05,28,2.10
2017,06,10,05,29,1.80
2017,06,10,05,30,2.00
2017,06,10,05,31,3.10
2017,06,10,05,32,3.30
2017,06,10,05,33,1.50
2017,06,10,05,34,0.10
2017,06,10,05,35,0.00
2017,06,10,05,36,0.00
2017,06,10,05,37,0.00
2017,06,10,05,38,1.50
2017,06,10,05,39,0.90
2017,06,10,05,40,0.10
2017,06,10,05,41,0.00
2017,06,10,05,42,0.00
2017,06,10,05,43,0.00
2017,06,10,05,44,0.00
2017,06,10,05,45,0.20
2017,06,10,05,46,0.10
2017,06,10,05,47,1.20
2017,06,10,05,48,2.10
2017,06,10,05,49,2.90
2017,06,10,05,50,1.80
2017,06,10,05,51,0.00
2017,06,10,05,52,0.00
2017,06,10,05,53,0.30
2017,06,10,05,54,0.00
2017,06,10,05,55,0.00
2017,06,10,05,56,0.70
2017,06,10,05,57,0.10
2017,06,10,05,58,1.30
2017,06,10,05,59,1.30
2017,06,10,06,00,0.70
2017,06,10,06,01,0.70
2017,06,10,06,02,0.80
2017,06,10,06,03,1.50
2017,06,10,06,04,1.70
2017,06,10,06,05,2.20
2017,06,10,06,06,1.80
2017,06,10,06,07,0.60
2017,06,10,06,08,0.40
2017,06,10,06,09,1.40
2017,06,10,06,10,2.90
2017,06,10,06,11,3.00
2017,06,10,06,12,2.30
2017,06,10,06,13,0.70
2017,06,10,06,14,1.60
2017,06,10,06,15,1.10
2017,06,10,06,16,1.10
2017,06,10,06,17,1.50
2017,06,10,06,18,0.40
2017,06,10,06,19,0.10
2017,06,10,06,20,0.90
2017,06,10,06,21,0.10
2017,06,10,06,22,1.20
2017,06,10,06,23,1.20
2017,06,10,06,24,0.40
2017,06,10,06,25,0.10
2017,06,10,06,26,0.10
2017,06,10,06,27,0.00
2017,06,10,06,28,0.10
2017,06,10,06,29,1.00
2017,06,10,06,30,2.10
2017,06,10,06,31,2.30
2017,06,10,06,32,1.70
2017,06,10,06,33,2.80
2017,06,10,06,34,2.10
2017,06,10,06,35,1.80
2017,06,10,06,36,2.00
2017,06,10,06,37,2.30
2017,06,10,06,38,2.00
2017,06,10,06,39,1.80
2017,06,10,06,40,0.80
2017,06,10,06,41,1.90
2017,06,10,06,42,2.60
2017,06,10,06,43,3.20
2017,06,10,06,44,3.70
2017,06,10,06,45,3.20
2017,06,10,06,46,3.60
2017,06,10,06,47,3.30
2017,06,10,06,48,2.00
2017,06,10,06,49,2.90
2017,06,10,06,50,5.60
2017,06,10,06,51,3.80
2017,06,10,06,52,3.90
2017,06,10,06,53,4.80
2017,06,10,06,54,5.80
2017,06,10,06,55,5.70
2017,06,10,06,56,5.90
2017,06,10,06,57,5.10
2017,06,10,06,58,5.40
2017,06,10,06,59,6.60
2017,06,10,07,00,6.10
2017,06,10,07,01,7.00
2017,06,10,07,02,7.10
2017,06,10,07,03,7.50
2017,06,10,07,04,7.40
2017,06,10,07,05,8.80
2017,06,10,07,06,7.30
2017,06,10,07,07,7.20
2017,06,10,07,08,6.50
2017,06,10,07,09,5.70
2017,06,10,07,10,5.80
2017,06,10,07,11,5.30
2017,06,10,07,12,7.10
2017,06,10,07,13,6.10
2017,06,10,07,14,7.10
2017,06,10,07,15,6.70
2017,06,10,07,16,5.40
2017,06,10,07,17,4.00
2017,06,10,07,18,3.90
2017,06,10,07,19,5.70
2017,06,10,07,20,4.20
2017,06,10,07,21,4.40
2017,06,10,07,22,3.60
2017,06,10,07,23,3.70
2017,06,10,07,24,3.80
2017,06,10,07,25,3.70
2017,06,10,07,26,4.10
2017,06,10,07,27,6.00
2017,06,10,07,28,5.30
2017,06,10,07,29,4.60
2017,06,10,07,30,4.00
2017,06,10,07,31,3.90
2017,06,10,07,32,3.40
2017,06,10,07,33,4.00
2017,06,10,07,34,2.70
2017,06,10,07,35,2.30
2017,06,10,07,36,3.90
2017,06,10,07,37,3.90
2017,06,10,07,38,1.80
2017,06,10,07,39,0.50
2017,06,10,07,40,0.90
2017,06,10,07,41,2.20
2017,06,10,07,42,3.50
2017,06,10,07,43,2.60
2017,06,10,07,44,2.20
2017,06,10,07,45,2.60
2017,06,10,07,46,1.50
2017,06,10,07,47,2.30
2017,06,10,07,48,2.50
2017,06,10,07,49,3.10
2017,06,10,07,50,1.10
2017,06,10,07,51,3.80
2017,06,10,07,52,2.50
2017,06,10,07,53,3.90
2017,06,10,07,54,3.40
2017,06,10,07,55,5.00
2017,06,10,07,56,3.60
2017,06,10,07,57,3.00
2017,06,10,07,58,2.90
2017,06,10,07,59,3.40
2017,06,10,08,00,4.00
2017,06,10,08,01,4.90
2017,06,10,08,02,2.70
2017,06,10,08,03,2.20
2017,06,10,08,04,1.80
2017,06,10,08,05,2.10
2017,06,10,08,06,4.10
2017,06,10,08,07,4.20
2017,06,10,08,08,4.20
2017,06,10,08,09,4.50
2017,06,10,08,10,5.40
2017,06,10,08,11,6.20
2017,06,10,08,12,3.50
2017,06,10,08,13,3.20
2017,06,10,08,14,3.30
2017,06,10,08,15,3.60
2017,06,10,08,16,2.20
2017,06,10,08,17,1.30
2017,06,10,08,18,1.50
2017,06,10,08,19,2.40
2017,06,10,08,20,2.00
2017,06,10,08,21,2.30
2017,06,10,08,22,2.40
2017,06,10,08,23,0.10
2017,06,10,08,24,0.60
2017,06,10,08,25,0.70
2017,06,10,08,26,1.60
2017,06,10,08,27,2.00
2017,06,10,08,28,4.00
2017,06,10,08,29,3.60
2017,06,10,08,30,3.10
2017,06,10,08,31,2.50
2017,06,10,08,32,3.30
2017,06,10,08,33,2.90
2017,06,10,08,34,2.00
2017,06,10,08,35,1.50
2017,06,10,08,36,1.30
2017,06,10,08,37,1.30
2017,06,10,08,38,3.50
2017,06,10,08,39,2.80
2017,06,10,08,40,2.10
2017,06,10,08,41,0.10
2017,06,10,08,42,1.80
2017,06,10,08,43,2.90
2017,06,10,08,44,2.20
2017,06,10,08,45,4.30
2017,06,10,08,46,5.00
2017,06,10,08,47,3.40
2017,06,10,08,48,2.70
2017,06,10,08,49,2.70
2017,06,10,08,50,2.10
2017,06,10,08,51,2.20
2017,06,10,08,52,2.20
2017,06,10,08,53,1.70
2017,06,10,08,54,2.80
2017,06,10,08,55,3.60
2017,06,10,08,56,3.70
2017,06,10,08,57,1.80
2017,06,10,08,58,2.50
2017,06,10,08,59,4.30
2017,06,10,09,00,3.90
2017,06,10,09,01,3.10
2017,06,10,09,02,4.80
2017,06,10,09,03,2.90
2017,06,10,09,04,2.90
2017,06,10,09,05,3.50
2017,06,10,09,06,3.20
2017,06,10,09,07,2.70
2017,06,10,09,08,2.80
2017,06,10,09,09,3.10
2017,06,10,09,10,4.90
2017,06,10,09,11,4.00
2017,06,10,09,12,4.00
2017,06,10,09,13,2.80
2017,06,10,09,14,2.80
2017,06,10,09,15,2.60
2017,06,10,09,16,4.70
2017,06,10,09,17,2.80
2017,06,10,09,18,4.20
2017,06,10,09,19,3.60
2017,06,10,09,20,2.40
2017,06,10,09,21,1.60
2017,06,10,09,22,1.80
2017,06,10,09,23,3.10
2017,06,10,09,24,4.20
2017,06,10,09,25,4.30
2017,06,10,09,26,2.00
2017,06,10,09,27,5.00
2017,06,10,09,28,4.50
2017,06,10,09,29,5.80
2017,06,10,09,30,4.80
2017,06,10,09,31,3.80
2017,06,10,09,32,1.80
2017,06,10,09,33,1.30
2017,06,10,09,34,3.60
2017,06,10,09,35,2.40
2017,06,10,09,36,2.00
2017,06,10,09,37,2.60
2017,06,10,09,38,4.00
2017,06,10,09,39,5.20
2017,06,10,09,40,2.90
2017,06,10,09,41,2.10
2017,06,10,09,42,4.10
2017,06,10,09,43,4.40
2017,06,10,09,44,4.40
2017,06,10,09,45,2.90
2017,06,10,09,46,3.90
2017,06,10,09,47,4.00
2017,06,10,09,48,2.60
2017,06,10,09,49,2.00
2017,06,10,09,50,3.70
2017,06,10,09,51,3.80
2017,06,10,09,52,2.80
2017,06,10,09,53,2.80
2017,06,10,09,54,3.60
2017,06,10,09,55,3.70
2017,06,10,09,56,2.30
2017,06,10,09,57,3.50
2017,06,10,09,58,3.40
2017,06,10,09,59,2.30
2017,06,10,10,00,2.40
2017,06,10,10,01,2.10
2017,06,10,10,02,2.80
2017,06,10,10,03,1.50
2017,06,10,10,04,4.80
2017,06,10,10,05,4.30
2017,06,10,10,06,4.10
2017,06,10,10,07,3.80
2017,06,10,10,08,2.60
2017,06,10,10,09,2.80
2017,06,10,10,10,2.00
2017,06,10,10,11,1.10
2017,06,10,10,12,1.10
2017,06,10,10,13,0.30
2017,06,10,10,14,0.50
2017,06,10,10,15,2.40
2017,06,10,10,16,2.90
2017,06,10,10,17,3.10
2017,06,10,10,18,3.70
2017,06,10,10,19,3.80
2017,06,10,10,20,2.60
2017,06,10,10,21,2.30
2017,06,10,10,22,4.30
2017,06,10,10,23,4.20
2017,06,10,10,24,3.30
2017,06,10,10,25,1.60
2017,06,10,10,26,2.80
2017,06,10,10,27,1.90
2017,06,10,10,28,2.60
2017,06,10,10,29,3.80
2017,06,10,10,30,4.00
2017,06,10,10,31,3.30
2017,06,10,10,32,1.40
2017,06,10,10,33,1.50
2017,06,10,10,34,1.80
2017,06,10,10,35,2.60
2017,06,10,10,36,3.10
2017,06,10,10,37,3.40
2017,06,10,10,38,2.20
2017,06,10,10,39,2.00
2017,06,10,10,40,2.10
2017,06,10,10,41,1.60
2017,06,10,10,42,3.40
2017,06,10,10,43,4.50
2017,06,10,10,44,4.30
2017,06,10,10,45,1.80
2017,06,10,10,46,2.80
2017,06,10,10,47,3.00
2017,06,10,10,48,2.60
2017,06,10,10,49,1.80
2017,06,10,10,50,2.80
2017,06,10,10,51,2.30
2017,06,10,10,52,4.00
2017,06,10,10,53,4.50
2017,06,10,10,54,3.10
2017,06,10,10,55,3.50
2017,06,10,10,56,5.00
2017,06,10,10,57,5.10
2017,06,10,10,58,2.60
2017,06,10,10,59,2.80
2017,06,10,11,00,1.80
2017,06,10,11,01,1.60
2017,06,10,11,02,3.40
2017,06,10,11,03,5.60
2017,06,10,11,04,4.90
2017,06,10,11,05,4.00
2017,06,10,11,06,3.10
2017,06,10,11,07,1.10
2017,06,10,11,08,0.10
2017,06,10,11,09,1.80
2017,06,10,11,10,2.20
2017,06,10,11,11,1.90
2017,06,10,11,12,0.50
2017,06,10,11,13,0.70
2017,06,10,11,14,2.80
2017,06,10,11,15,3.30
2017,06,10,11,16,5.80
2017,06,10,11,17,7.80
2017,06,10,11,18,5.70
2017,06,10,11,19,3.20
2017,06,10,11,20,4.50
2017,06,10,11,21,5.20
2017,06,10,11,22,9.70
2017,06,10,11,23,7.50
2017,06,10,11,24,6.10
2017,06,10,11,25,6.60
2017,06,10,11,26,6.40
2017,06,10,11,27,6.60
2017,06,10,11,28,3.30
2017,06,10,11,29,3.20
2017,06,10,11,30,5.20
2017,06,10,11,31,6.50
2017,06,10,11,32,5.90
2017,06,10,11,33,4.60
2017,06,10,11,34,3.60
2017,06,10,11,35,4.00
2017,06,10,11,36,1.90
2017,06,10,11,37,3.60
2017,06,10,11,38,4.50
2017,06,10,11,39,5.00
2017,06,10,11,40,5.00
2017,06,10,11,41,5.30
2017,06,10,11,42,5.70
2017,06,10,11,43,6.80
2017,06,10,11,44,4.80
2017,06,10,11,45,1.90
2017,06,10,11,46,4.20
2017,06,10,11,47,9.40
2017,06,10,11,48,4.20
2017,06,10,11,49,5.40
2017,06,10,11,50,5.60
2017,06,10,11,51,4.10
2017,06,10,11,52,5.80
2017,06,10,11,53,4.50
2017,06,10,11,54,5.00
2017,06,10,11,55,2.80
2017,06,10,11,56,7.10
2017,06,10,11,57,6.00
2017,06,10,11,58,3.30
2017,06,10,11,59,7.10
2017,06,10,12,00,10.50
2017,06,10,12,01,8.70
2017,06,10,12,02,9.30
2017,06,10,12,03,8.00
2017,06,10,12,04,6.90
2017,06,10,12,05,3.20
2017,06,10,12,06,2.80
2017,06,10,12,07,3.70
2017,06,10,12,08,6.40
2017,06,10,12,09,5.00
2017,06,10,12,10,5.50
2017,06,10,12,11,6.10
2017,06,10,12,12,4.60
2017,06,10,12,13,2.00
2017,06,10,12,14,4.20
2017,06,10,12,15,5.50
2017,06,10,12,16,1.80
2017,06,10,12,17,1.70
2017,06,10,12,18,5.00
2017,06,10,12,19,5.60
2017,06,10,12,20,7.40
2017,06,10,12,21,9.30
2017,06,10,12,22,7.80
2017,06,10,12,23,5.20
2017,06,10,12,24,7.10
2017,06,10,12,25,6.40
2017,06,10,12,26,7.10
2017,06,10,12,27,6.00
2017,06,10,12,28,5.60
2017,06,10,12,29,3.30
2017,06,10,12,30,2.20
2017,06,10,12,31,4.50
2017,06,10,12,32,4.40
2017,06,10,12,33,8.00
2017,06,10,12,34,6.70
2017,06,10,12,35,6.10
2017,06,10,12,36,7.50
2017,06,10,12,37,9.50
2017,06,10,12,38,6.90
2017,06,10,12,39,6.00
2017,06,10,12,40,8.70
2017,06,10,12,41,6.40
2017,06,10,12,42,5.00
2017,06,10,12,43,8.40
2017,06,10,12,44,3.60
2017,06,10,12,45,4.10
2017,06,10,12,46,5.80
2017,06,10,12,47,3.40
2017,06,10,12,48,3.70
2017,06,10,12,49,3.00
2017,06,10,12,50,6.50
2017,06,10,12,51,5.00
2017,06,10,12,52,4.40
2017,06,10,12,53,7.00
2017,06,10,12,54,4.90
2017,06,10,12,55,8.70
2017,06,10,12,56,8.30
2017,06,10,12,57,9.50
2017,06,10,12,58,5.00
2017,06,10,12,59,5.90
2017,06,10,13,00,6.70
2017,06,10,13,01,3.30
2017,06,10,13,02,6.40
2017,06,10,13,03,9.70
2017,06,10,13,04,8.70
2017,06,10,13,05,7.00
2017,06,10,13,06,10.90
2017,06,10,13,07,11.00
2017,06,10,13,08,9.50
2017,06,10,13,09,8.80
2017,06,10,13,10,7.80
2017,06,10,13,11,10.10
2017,06,10,13,12,9.20
2017,06,10,13,13,4.80
2017,06,10,13,14,6.10
2017,06,10,13,15,5.90
2017,06,10,13,16,9.40
2017,06,10,13,17,9.30
2017,06,10,13,18,4.00
2017,06,10,13,19,7.80
2017,06,10,13,20,9.20
2017,06,10,13,21,7.00
2017,06,10,13,22,5.30
2017,06,10,13,23,7.90
2017,06,10,13,24,8.60
2017,06,10,13,25,10.70
2017,06,10,13,26,7.40
2017,06,10,13,27,6.00
2017,06,10,13,28,4.10
2017,06,10,13,29,7.50
2017,06,10,13,30,3.90
2017,06,10,13,31,5.60
2017,06,10,13,32,5.90
2017,06,10,13,33,7.50
2017,06,10,13,34,4.60
2017,06,10,13,35,3.00
2017,06,10,13,36,1.90
2017,06,10,13,37,5.70
2017,06,10,13,38,7.80
2017,06,10,13,39,6.80
2017,06,10,13,40,3.70
2017,06,10,13,41,4.80
2017,06,10,13,42,9.20
2017,06,10,13,43,7.70
2017,06,10,13,44,4.10
2017,06,10,13,45,4.50
2017,06,10,13,46,4.60
2017,06,10,13,47,4.80
2017,06,10,13,48,5.60
2017,06,10,13,49,2.70
2017,06,10,13,50,4.50
2017,06,10,13,51,4.80
2017,06,10,13,52,2.40
2017,06,10,13,53,8.50
2017,06,10,13,54,9.10
2017,06,10,13,55,11.10
2017,06,10,13,56,7.60
2017,06,10,13,57,9.00
2017,06,10,13,58,8.10
2017,06,10,13,59,6.10
2017,06,10,14,00,5.10
2017,06,10,14,01,8.40
2017,06,10,14,02,9.00
2017,06,10,14,03,7.30
2017,06,10,14,04,6.60
2017,06,10,14,05,8.30
2017,06,10,14,06,9.40
2017,06,10,14,07,9.30
2017,06,10,14,08,10.90
2017,06,10,14,09,8.10
2017,06,10,14,10,7.10
2017,06,10,14,11,9.10
2017,06,10,14,12,10.90
2017,06,10,14,13,13.80
2017,06,10,14,14,15.10
2017,06,10,14,15,14.50
2017,06,10,14,16,10.80
2017,06,10,14,17,10.80
2017,06,10,14,18,8.00
2017,06,10,14,19,14.60
2017,06,10,14,20,10.70
2017,06,10,14,21,8.60
2017,06,10,14,22,7.20
2017,06,10,14,23,9.80
2017,06,10,14,24,9.60
2017,06,10,14,25,7.80
2017,06,10,14,26,12.20
2017,06,10,14,27,8.50
2017,06,10,14,28,7.20
2017,06,10,14,29,8.30
2017,06,10,14,30,8.70
2017,06,10,14,31,7.90
2017,06,10,14,32,6.00
2017,06,10,14,33,5.30
2017,06,10,14,34,5.00
2017,06,10,14,35,7.00
2017,06,10,14,36,8.10
2017,06,10,14,37,7.80
2017,06,10,14,38,7.00
2017,06,10,14,39,10.30
2017,06,10,14,40,5.70
2017,06,10,14,41,8.60
2017,06,10,14,42,8.50
2017,06,10,14,43,10.10
2017,06,10,14,44,8.10
2017,06,10,14,45,8.10
2017,06,10,14,46,11.80
2017,06,10,14,47,8.20
2017,06,10,14,48,4.50
2017,06,10,14,49,6.90
2017,06,10,14,50,3.90
2017,06,10,14,51,7.80
2017,06,10,14,52,9.50
2017,06,10,14,53,8.30
2017,06,10,14,54,8.70
2017,06,10,14,55,6.30
2017,06,10,14,56,8.70
2017,06,10,14,57,8.60
2017,06,10,14,58,5.90
2017,06,10,14,59,9.00
2017,06,10,15,00,10.10
2017,06,10,15,01,7.00
2017,06,10,15,02,5.60
2017,06,10,15,03,5.30
2017,06,10,15,04,6.20
2017,06,10,15,05,5.70
2017,06,10,15,06,6.70
2017,06,10,15,07,7.10
2017,06,10,15,08,8.70
2017,06,10,15,09,8.20
2017,06,10,15,10,7.30
2017,06,10,15,11,5.70
2017,06,10,15,12,8.10
2017,06,10,15,13,11.40
2017,06,10,15,14,9.40
2017,06,10,15,15,9.90
2017,06,10,15,16,7.10
2017,06,10,15,17,7.40
2017,06,10,15,18,5.10
2017,06,10,15,19,4.80
2017,06,10,15,20,7.80
2017,06,10,15,21,8.10
2017,06,10,15,22,12.10
2017,06,10,15,23,7.20
2017,06,10,15,24,6.20
2017,06,10,15,25,4.80
2017,06,10,15,26,7.60
2017,06,10,15,27,9.90
2017,06,10,15,28,9.70
2017,06,10,15,29,9.90
2017,06,10,15,30,7.40
2017,06,10,15,31,7.80
2017,06,10,15,32,6.40
2017,06,10,15,33,7.00
2017,06,10,15,34,3.80
2017,06,10,15,35,2.40
2017,06,10,15,36,3.30
2017,06,10,15,37,4.80
2017,06,10,15,38,6.40
2017,06,10,15,39,5.70
2017,06,10,15,40,3.50
2017,06,10,15,41,7.00
2017,06,10,15,42,8.00
2017,06,10,15,43,6.60
2017,06,10,15,44,5.70
2017,06,10,15,45,4.70
2017,06,10,15,46,6.00
2017,06,10,15,47,2.80
2017,06,10,15,48,8.10
2017,06,10,15,49,8.80
2017,06,10,15,50,6.60
2017,06,10,15,51,10.80
2017,06,10,15,52,9.60
2017,06,10,15,53,11.30
2017,06,10,15,54,12.70
2017,06,10,15,55,10.70
2017,06,10,15,56,9.50
2017,06,10,15,57,7.10
2017,06,10,15,58,3.40
2017,06,10,15,59,3.40
2017,06,10,16,00,2.30
2017,06,10,16,01,3.90
2017,06,10,16,02,5.10
2017,06,10,16,03,4.50
2017,06,10,16,04,2.50
2017,06,10,16,05,6.20
2017,06,10,16,06,7.00
2017,06,10,16,07,6.40
2017,06,10,16,08,7.10
2017,06,10,16,09,6.70
2017,06,10,16,10,7.20
2017,06,10,16,11,8.60
2017,06,10,16,12,11.80
2017,06,10,16,13,10.40
2017,06,10,16,14,11.50
2017,06,10,16,15,10.70
2017,06,10,16,16,12.30
2017,06,10,16,17,4.90
2017,06,10,16,18,3.40
2017,06,10,16,19,4.80
2017,06,10,16,20,6.10
2017,06,10,16,21,6.90
2017,06,10,16,22,12.80
2017,06,10,16,23,6.90
2017,06,10,16,24,4.80
2017,06,10,16,25,12.40
2017,06,10,16,26,11.40
2017,06,10,16,27,8.50
2017,06,10,16,28,12.00
2017,06,10,16,29,12.10
2017,06,10,16,30,9.00
2017,06,10,16,31,9.00
2017,06,10,16,32,7.70
2017,06,10,16,33,6.70
2017,06,10,16,34,6.00
2017,06,10,16,35,5.80
2017,06,10,16,36,10.80
2017,06,10,16,37,3.20
2017,06,10,16,38,7.30
2017,06,10,16,39,5.90
2017,06,10,16,40,8.80
2017,06,10,16,41,5.90
2017,06,10,16,42,4.00
2017,06,10,16,43,4.50
2017,06,10,16,44,4.80
2017,06,10,16,45,6.30
2017,06,10,16,46,5.70
2017,06,10,16,47,8.60
2017,06,10,16,48,10.00
2017,06,10,16,49,6.40
2017,06,10,16,50,5.40
2017,06,10,16,51,5.30
2017,06,10,16,52,5.00
2017,06,10,16,53,6.70
2017,06,10,16,54,9.70
2017,06,10,16,55,9.00
2017,06,10,16,56,10.90
2017,06,10,16,57,14.40
2017,06,10,16,58,11.10
2017,06,10,16,59,7.80
2017,06,10,17,00,8.50
2017,06,10,17,01,7.80
2017,06,10,17,02,6.60
2017,06,10,17,03,9.60
2017,06,10,17,04,9.70
2017,06,10,17,05,9.70
2017,06,10,17,06,9.10
2017,06,10,17,07,12.50
2017,06,10,17,08,12.10
2017,06,10,17,09,6.10
2017,06,10,17,10,5.90
2017,06,10,17,11,13.80
2017,06,10,17,12,10.80
2017,06,10,17,13,15.20
2017,06,10,17,14,11.80
2017,06,10,17,15,12.70
2017,06,10,17,16,13.30
2017,06,10,17,17,10.40
2017,06,10,17,18,7.70
2017,06,10,17,19,13.60
2017,06,10,17,20,16.80
2017,06,10,17,21,17.80
2017,06,10,17,22,11.80
2017,06,10,17,23,11.90
2017,06,10,17,24,11.00
2017,06,10,17,25,14.00
2017,06,10,17,26,11.20
2017,06,10,17,27,11.90
2017,06,10,17,28,9.40
2017,06,10,17,29,10.10
2017,06,10,17,30,6.30
2017,06,10,17,31,8.70
2017,06,10,17,32,7.40
2017,06,10,17,33,7.30
2017,06,10,17,34,12.40
2017,06,10,17,35,8.50
2017,06,10,17,36,16.40
2017,06,10,17,37,15.80
2017,06,10,17,38,16.30
2017,06,10,17,39,11.30
2017,06,10,17,40,10.60
2017,06,10,17,41,11.40
2017,06,10,17,42,13.40
2017,06,10,17,43,13.60
2017,06,10,17,44,15.50
2017,06,10,17,45,11.60
2017,06,10,17,46,12.40
2017,06,10,17,47,9.70
2017,06,10,17,48,13.50
2017,06,10,17,49,11.60
2017,06,10,17,50,16.90
2017,06,10,17,51,11.50
2017,06,10,17,52,14.00
2017,06,10,17,53,11.80
2017,06,10,17,54,10.80
2017,06,10,17,55,13.30
2017,06,10,17,56,13.40
2017,06,10,17,57,15.10
2017,06,10,17,58,12.80
2017,06,10,17,59,12.10
2017,06,10,18,00,7.80